EHI
6 11 17 17 15 14 12 9 7 6 6 6 4 2 1 1 1 1 1 2 2 1 2 4 4 3 3 3 3 2 3 3 3 3 3 3 3 3 3 2 1 0 0
4 10 16 16 14 13 12 9 7 6 7 5 3 2 1 0 1 1 1 2 2 1 2 4 4 3 3 3 3 3 3 3 3 3 3 3 3 3 3 3 2 1 2
2 7 12 13 12 12 10 9 7 7 7 5 2 1 0 0 1 2 2 3 3 3 3 4 4 3 3 3 3 3 3 3 3 3 3 3 4 4 4 3 3 4 4
1 4 8 11 10 9 9 9 8 7 6 4 1 0 0 1 2 2 3 3 3 3 3 3 2 3 3 3 3 3 3 3 3 3 3 3 4 6 6 4 3 4 4
2 3 7 10 10 8 8 10 10 7 5 3 1 1 1 1 1 1 1 2 3 3 3 2 2 2 3 3 3 3 3 3 3 2 2 2 4 6 6 4 3 3 3
2 3 6 9 10 8 8 10 11 8 4 2 1 2 2 1 0 0 0 2 3 4 3 3 2 3 4 3 3 4 4 4 2 1 0 1 3 5 5 4 3 3 3
2 3 6 10 11 9 9 9 10 8 5 3 2 2 1 0 0 0 0 1 2 3 3 3 3 4 4 4 4 4 5 3 1 0 0 1 3 4 3 3 3 3 3
1 2 5 9 11 10 9 8 8 8 7 5 4 3 1 1 1 1 1 1 1 2 3 3 3 4 4 3 4 4 4 3 2 1 0 1 3 4 3 3 3 3 3
1 2 4 6 8 10 10 10 9 8 8 7 4 3 3 3 4 4 4 3 2 1 2 3 3 3 3 3 4 5 5 5 3 2 1 1 3 4 4 3 3 3 3
0 1 2 3 4 6 9 11 11 9 7 6 4 3 4 4 5 5 4 5 4 2 1 2 2 3 3 4 5 6 5 4 2 1 1 2 4 4 4 3 3 3 3
0 0 1 1 2 3 6 8 8 7 5 3 3 3 4 4 4 3 3 4 4 2 1 1 1 2 3 5 6 6 4 2 0 0 1 3 4 4 3 2 2 3 3
0 0 1 2 2 3 3 4 5 5 4 2 1 2 5 5 4 3 2 3 3 3 3 2 2 2 4 5 5 5 3 1 0 0 2 5 6 5 3 3 3 3 4
0 0 1 2 3 3 3 3 4 5 5 3 1 2 4 5 5 4 3 3 3 3 3 3 3 4 5 5 4 4 3 2 1 0 3 7 8 6 4 3 4 4 5
0 0 0 1 2 3 4 4 4 6 6 5 3 3 4 5 5 4 3 3 4 4 3 4 4 4 4 4 4 4 3 3 2 1 2 5 6 5 4 3 4 4 4
0 0 0 1 3 4 5 5 5 6 7 6 5 4 3 4 5 4 3 4 4 4 4 3 4 3 3 3 3 4 4 4 3 2 2 3 4 4 3 2 1 2 2
0 0 1 2 4 5 6 6 6 7 6 5 4 3 2 3 4 3 2 3 3 4 3 3 3 3 3 3 3 4 6 6 4 3 3 4 5 5 3 1 1 1 1
1 1 2 4 5 6 6 6 6 6 5 3 2 2 1 2 3 2 1 1 2 3 3 3 3 3 3 3 3 4 6 5 4 3 3 3 5 6 4 3 3 3 2
4 4 5 6 7 7 7 7 6 5 3 2 1 1 1 1 2 2 2 2 2 3 3 3 3 3 3 3 3 4 4 4 3 2 2 3 5 6 6 6 6 6 6
8 10 11 11 11 10 8 7 6 4 4 3 2 1 0 1 2 3 3 3 3 3 4 4 4 3 3 3 3 2 2 2 1 1 2 3 5 5 6 8 8 9 10
12 14 16 17 16 14 11 9 6 5 5 5 3 1 1 2 3 3 3 4 4 5 5 6 5 4 3 2 1 1 1 1 0 1 1 1 3 4 5 6 7 9 11
14 16 18 20 19 18 15 12 8 5 5 5 4 3 3 3 3 3 4 5 5 6 7 7 7 6 3 1 0 0 0 0 1 1 0 0 2 3 4 4 5 7 10
16 15 17 20 20 18 17 13 7 4 4 4 4 4 4 3 3 3 4 5 6 8 9 9 8 6 3 0 0 0 0 1 2 1 0 0 1 1 2 3 4 5 7
15 14 16 19 19 17 16 12 7 5 5 4 4 5 5 4 3 4 5 6 6 7 8 8 8 6 3 1 1 2 2 2 2 1 0 0 1 2 2 2 3 5 6
13 13 14 17 17 15 12 10 8 7 6 6 6 6 6 5 4 6 7 7 7 6 7 7 7 6 4 1 2 5 5 4 3 2 1 1 2 3 2 1 3 6 7
8 9 11 13 14 13 11 10 10 9 8 7 7 8 7 6 6 6 7 8 9 8 7 8 8 7 6 5 4 6 8 8 5 4 4 3 3 3 3 4 5 7 8
4 6 7 9 12 12 12 11 10 9 9 9 8 8 7 6 6 6 6 9 10 10 9 9 9 9 8 8 7 6 8 9 7 6 7 6 4 2 4 6 7 8 9
Wind_Speed
2 4 7 4 3 4 4 4 5 6 7 8 8 8 8 8 8 8 8 8 7 8 8 8 8 8 8 7 7 7 7 7 7 7 8 8 8 8 8 8 10 9 9
2 4 6 4 4 4 4 4 5 6 7 8 8 8 8 8 8 7 7 7 7 7 7 7 7 7 7 7 7 7 7 7 7 7 8 9 9 8 8 8 7 4 10
3 3 5 4 4 4 4 4 4 5 6 7 8 8 8 7 7 7 7 6 7 7 7 7 7 7 7 7 7 7 7 7 7 8 8 8 9 10 9 8 7 7 9
2 3 4 5 4 4 4 3 3 4 6 7 7 7 8 8 7 7 6 6 6 6 7 7 7 7 7 7 7 7 7 7 8 8 7 5 5 9 9 8 8 9 9
3 3 6 4 4 3 3 3 3 4 6 7 7 7 7 7 7 6 5 5 6 6 6 6 6 6 6 6 7 7 7 8 8 9 5 4 4 7 8 8 8 9 10
3 3 7 4 3 2 2 3 3 5 6 7 7 7 7 6 6 5 5 6 6 6 6 6 5 5 6 6 6 7 7 8 10 6 5 5 4 7 7 7 7 8 10
3 3 6 5 3 2 2 2 3 5 7 6 6 7 6 6 5 5 4 5 5 5 5 5 5 5 5 6 7 7 7 8 7 4 4 4 4 7 7 7 6 7 8
3 3 5 6 4 2 2 2 3 6 6 5 5 5 5 5 5 4 4 4 4 4 4 5 4 4 5 5 6 7 7 8 7 6 5 5 5 7 8 8 7 7 9
4 3 2 3 5 5 4 3 4 5 5 5 5 4 4 4 4 4 3 3 3 3 3 3 4 4 4 5 6 7 7 8 7 4 5 4 7 8 9 8 8 8 9
4 3 3 3 2 1 4 7 5 5 5 5 4 4 4 5 6 5 4 4 3 2 2 3 3 4 4 5 5 6 7 8 6 5 4 4 8 9 9 9 9 9 9
4 4 4 3 2 2 3 5 6 7 6 5 5 5 4 2 3 5 5 4 3 2 1 2 3 4 6 7 6 6 7 4 4 3 3 5 8 9 9 9 9 9 9
4 4 4 4 3 3 3 3 2 3 4 3 2 2 2 2 1 1 6 5 3 2 2 2 4 6 7 4 6 8 4 4 4 3 3 7 7 8 8 8 9 9 10
4 4 4 4 4 4 3 3 2 2 2 3 3 2 2 1 1 1 1 3 3 3 2 2 4 2 2 1 2 2 2 2 2 2 4 7 7 7 8 8 9 9 9
4 4 4 4 4 4 4 3 2 2 2 2 3 2 2 1 1 1 1 0 0 0 0 1 1 1 1 1 2 1 2 2 1 1 3 6 6 7 7 7 8 8 9
3 3 4 3 3 3 3 2 2 2 2 3 2 2 1 1 1 1 1 1 1 1 1 1 1 0 1 2 2 2 2 2 2 2 3 6 5 6 6 7 8 8 8
3 3 3 3 4 3 2 2 2 2 2 2 2 3 2 2 2 1 1 1 1 1 1 1 1 1 1 1 1 1 2 2 2 2 2 5 7 6 6 6 7 8 8
2 2 3 3 4 4 3 2 2 2 3 2 2 3 3 2 2 1 1 1 1 1 1 1 1 1 1 1 1 1 1 1 1 1 1 1 3 6 6 5 6 7 8
2 3 3 3 4 4 3 2 2 3 3 3 2 3 3 3 2 1 1 1 2 1 1 0 1 1 1 1 0 0 1 1 1 1 1 1 1 2 5 6 5 6 7
3 4 4 4 4 4 3 3 3 3 3 2 2 2 3 3 2 1 2 2 1 1 1 1 1 1 1 1 0 1 1 1 1 1 0 1 1 1 1 5 5 5 5
4 4 4 4 4 3 3 3 2 3 2 2 2 3 3 2 3 2 2 2 2 1 1 1 1 1 1 1 1 1 0 0 0 0 1 1 1 2 2 2 3 4 5
4 4 4 4 4 2 2 2 2 2 2 2 2 3 2 2 2 2 2 1 1 1 1 1 1 0 0 1 1 0 0 1 1 0 0 1 0 1 1 1 1 1 3
4 4 4 4 4 3 2 2 1 1 1 2 2 2 2 2 2 1 1 1 1 1 1 1 1 2 1 1 2 2 1 1 1 0 0 0 1 0 1 2 1 1 2
5 4 4 4 3 3 2 2 2 1 1 1 1 2 2 2 2 2 2 2 2 2 1 1 2 2 2 1 2 3 2 1 1 1 1 1 1 1 1 0 1 1 2
5 5 4 4 3 3 3 2 2 1 1 1 1 1 1 1 1 2 2 2 2 2 2 2 1 3 2 2 1 1 2 2 2 1 0 1 0 1 1 1 1 1 1
6 5 5 4 4 3 3 3 2 1 1 1 1 2 1 1 1 2 2 2 2 2 2 3 3 3 2 3 2 2 1 1 2 2 1 1 1 0 1 1 1 1 0
6 6 5 5 4 3 3 3 2 1 1 1 1 1 0 1 1 2 2 2 2 2 2 2 3 2 2 3 3 2 2 2 2 2 2 2 1 1 0 1 1 1 0
Wind_Direction
104 116 131 170 169 168 166 168 167 168 166 163 161 159 157 156 156 157 158 161 163 166 169 168 167 168 169 168 168 166 165 170 171 169 170 166 167 168 171 176 189 182 165
75 113 140 165 161 163 167 161 166 169 168 166 165 163 162 162 163 163 162 167 169 167 167 167 168 169 173 174 173 172 172 176 177 176 175 175 174 178 180 186 207 169 163
69 107 146 150 161 164 169 162 165 170 168 168 168 166 167 168 169 169 170 170 169 171 171 170 172 174 177 181 179 177 180 183 181 184 194 197 174 175 186 191 193 184 176
65 94 98 123 154 161 166 167 174 172 171 168 168 169 169 169 168 170 170 170 171 177 180 177 175 175 181 182 183 185 186 187 190 197 202 197 179 162 181 189 193 189 187
65 75 92 118 142 158 167 174 183 173 165 162 162 163 163 164 167 168 167 169 175 178 176 177 182 182 182 182 186 191 189 188 199 214 197 195 181 153 176 187 192 193 192
71 74 95 107 125 147 167 182 186 173 157 153 152 151 154 157 159 161 167 168 173 179 182 182 188 194 195 193 190 193 197 199 212 203 195 195 181 156 177 190 196 198 195
73 77 96 104 115 136 158 178 171 164 156 152 152 155 158 157 157 159 162 169 177 182 187 191 195 199 196 194 195 197 199 209 226 207 204 200 174 161 184 195 201 200 196
59 70 99 131 133 125 142 145 138 142 141 146 149 151 159 165 164 164 155 164 170 176 184 192 198 202 200 197 200 203 206 223 214 206 207 204 167 173 190 199 204 206 200
53 48 72 118 141 154 149 132 126 133 133 137 142 147 154 162 165 155 157 149 145 155 174 184 198 198 204 207 211 215 212 223 232 210 210 202 165 183 197 205 208 212 206
48 45 69 83 74 130 145 142 145 139 136 140 145 149 162 176 170 163 165 135 144 157 177 185 194 209 212 211 214 216 212 218 218 207 209 175 173 191 202 210 213 214 209
50 49 58 67 60 62 77 115 151 155 148 163 156 158 185 173 149 161 116 119 123 128 185 202 207 217 219 204 202 206 216 215 194 212 198 158 186 198 209 216 219 217 211
51 55 61 54 49 56 68 88 110 121 116 118 97 118 126 108 131 113 123 138 141 159 183 194 225 223 231 201 186 203 215 201 194 192 158 167 194 205 213 220 222 218 214
63 55 60 70 53 43 62 70 73 76 90 100 95 102 103 91 104 107 126 147 155 182 193 172 218 233 227 209 232 202 192 211 187 184 147 161 193 209 218 222 219 215 212
77 70 58 67 77 59 50 58 70 69 72 73 91 74 77 81 64 70 64 38 193 158 160 257 266 281 265 217 214 201 189 209 200 187 138 155 192 211 224 221 213 210 205
87 81 76 66 67 72 74 52 68 63 56 72 65 75 55 79 70 55 39 7 327 332 207 243 277 330 257 222 223 203 209 189 206 219 157 162 192 205 218 215 209 206 203
95 87 88 98 98 93 88 77 66 61 76 61 62 60 38 43 44 43 43 5 346 327 352 315 323 313 298 259 228 213 229 213 193 215 211 172 181 192 208 212 209 206 203
103 97 107 120 109 104 91 77 67 60 63 57 56 60 43 39 48 41 46 1 4 4 11 327 345 316 284 238 214 198 204 221 213 200 238 224 181 182 194 204 206 202 204
117 113 111 109 111 106 95 80 69 54 56 54 51 60 57 43 40 33 38 29 33 17 4 10 304 291 345 331 118 202 141 139 208 197 210 200 210 176 175 185 198 195 205
126 124 122 114 114 107 103 102 87 78 68 61 63 54 55 43 37 30 48 35 3 24 7 331 29 316 9 0 2 180 188 169 202 203 180 204 173 200 176 147 167 178 195
130 127 126 126 116 124 123 116 101 82 75 67 64 56 44 42 42 13 58 36 349 25 6 2 9 344 318 317 325 15 263 176 187 134 237 198 181 183 188 156 173 175 180
135 132 128 123 119 128 119 116 114 96 75 64 62 54 44 34 37 25 24 45 345 27 357 344 322 177 259 320 278 251 191 172 107 140 258 318 173 164 153 149 232 234 171
145 143 142 135 126 132 120 119 103 80 86 78 61 63 35 34 20 30 26 339 13 3 21 354 330 310 327 307 299 289 241 180 139 105 161 124 345 55 155 179 199 215 271
156 153 141 137 139 133 134 137 122 136 147 102 83 75 46 24 14 7 11 351 347 326 8 331 317 300 299 295 319 305 300 315 341 139 39 51 21 336 285 191 200 190 219
162 152 145 142 142 140 146 133 136 138 103 69 57 60 51 33 17 10 6 356 340 334 344 305 331 299 295 297 288 308 318 330 299 288 212 93 40 293 299 292 277 183 196
162 156 150 147 148 149 152 151 167 151 113 91 78 80 36 62 35 15 5 353 340 333 345 335 326 315 314 314 314 311 301 260 260 263 278 266 223 250 287 292 311 315 141
166 161 153 153 157 161 161 153 164 145 118 84 47 36 4 72 51 33 2 356 334 342 343 321 314 314 322 326 315 309 293 286 282 276 267 262 277 305 353 344 329 321 52